Weather History for KHCO - March, 2014

Change the Weather History Date:

Friday, March 21, 2014

  Actual Average Record
Temperature  
Mean Temperature 17 °F -  
Max Temperature 33 °F 33 °F 64 °F (2012)
Min Temperature 1 °F 15 °F -14 °F (1959)
Degree Days  
Heating Degree Days 48    
Moisture  
Dew Point 10 °F    
Average Humidity 78    
Maximum Humidity 87    
Minimum Humidity 66    
Precipitation  
Precipitation 0.00 in - - ()
Sea Level Pressure  
Sea Level Pressure 30.08 in    
Wind  
Wind Speed 20 mph (North)    
Max Wind Speed 38 mph    
Max Gust Speed 46 mph    
Visibility 7 miles    
Events Snow    
Averages and records for this station are not official NWS values.
T = Trace of Precipitation, MM = Missing Value Source: NWS Daily Summary

Daily Weather History Graph

Daily Weather History Graph

Search for Another Location

Airport or City:

Trip Planner

Search our weather history database for the weather conditions in past years. The results will help you decide how hot, cold, wet, or windy it might be!

Date:

Astronomy

Mar. 21, 2014 Rise Set
Actual Time 7:28 AM CDT 7:42 PM CDT
Civil Twilight 6:56 AM CDT 8:13 PM CDT
Nautical Twilight 6:19 AM CDT 8:50 PM CDT
Astronomical Twilight 5:41 AM CDT 9:29 PM CDT
Moon 12:23 AM CDT (3/21) 9:58 AM CDT (3/21)
Length of Visible Light 13h 16m
Length of Day
12h 13m
Waning Gibbous, 75% of the Moon is Illuminated
Mar 21
Waning Gibbous
Mar 23
Last Quarter
Mar 30
New
Apr 7
First Quarter
Apr 15
Full

Hourly Weather History & Observations

Time (CDT) Temp. Windchill Dew Point Humidity Pressure Visibility Wind Dir Wind Speed Gust Speed Precip Events Conditions
12:13 AM 33.8 °F 24.8 °F 30.2 °F 87% 29.80 in 10.0 mi NE 12.7 mph - N/A   Overcast
12:33 AM 33.8 °F 24.8 °F 30.2 °F 87% 29.80 in 10.0 mi NE 12.7 mph - N/A   Overcast
12:53 AM 33.8 °F 25.3 °F 30.2 °F 87% 29.80 in 10.0 mi NE 11.5 mph - N/A   Overcast
1:13 AM 33.8 °F 24.3 °F 30.2 °F 87% 29.79 in 10.0 mi NE 13.8 mph - N/A   Overcast
1:33 AM 33.8 °F 24.8 °F 30.2 °F 87% 29.80 in 10.0 mi NE 12.7 mph - N/A   Overcast
1:53 AM 33.8 °F 24.3 °F 30.2 °F 87% 29.79 in 10.0 mi NE 13.8 mph - N/A   Overcast
2:13 AM 33.8 °F 24.8 °F 30.2 °F 87% 29.80 in 10.0 mi NE 12.7 mph - N/A   Overcast
2:33 AM 33.8 °F 24.3 °F 30.2 °F 87% 29.80 in 7.0 mi NNE 13.8 mph - N/A   Overcast
2:53 AM 33.8 °F 24.3 °F 30.2 °F 87% 29.79 in 10.0 mi NE 13.8 mph - N/A   Overcast
3:13 AM 33.8 °F 24.8 °F 30.2 °F 87% 29.80 in 5.0 mi NNE 12.7 mph 17.3 mph N/A Snow Light Snow
3:33 AM 33.8 °F 24.8 °F 30.2 °F 87% 29.80 in 5.0 mi NNE 12.7 mph 19.6 mph N/A Snow Light Snow
3:53 AM 33.8 °F 23.9 °F 30.2 °F 87% 29.80 in 7.0 mi North 15.0 mph - N/A Snow Light Snow
4:13 AM 33.8 °F 23.5 °F 30.2 °F 87% 29.81 in 7.0 mi North 16.1 mph - N/A Snow Light Snow
4:33 AM 33.8 °F 23.2 °F 30.2 °F 87% 29.81 in 10.0 mi North 17.3 mph 23.0 mph N/A Snow Light Snow
4:53 AM 33.8 °F 21.9 °F 30.2 °F 87% 29.81 in 10.0 mi North 21.9 mph 29.9 mph N/A   Overcast
5:13 AM 32.0 °F 20.1 °F 28.4 °F 87% 29.82 in 7.0 mi North 19.6 mph 24.2 mph N/A   Overcast
5:33 AM 32.0 °F 20.8 °F 28.4 °F 87% 29.83 in 7.0 mi North 17.3 mph 24.2 mph N/A   Overcast
5:53 AM 28.4 °F 14.4 °F 24.8 °F 86% 29.84 in 5.0 mi NNW 23.0 mph 27.6 mph N/A   Overcast
6:13 AM 26.6 °F 11.7 °F 23.0 °F 86% 29.85 in 7.0 mi North 24.2 mph 31.1 mph N/A   Overcast
6:33 AM 24.8 °F 9.0 °F 21.2 °F 86% 29.86 in 5.0 mi North 25.3 mph 31.1 mph N/A   Overcast
6:53 AM 23.0 °F 6.0 °F 19.4 °F 86% 29.88 in 3.0 mi North 27.6 mph 35.7 mph N/A   Overcast
7:13 AM 21.2 °F 3.5 °F 17.6 °F 86% 29.89 in 3.0 mi North 27.6 mph 40.3 mph N/A   Overcast
7:33 AM 19.4 °F -0.0 °F 15.8 °F 86% 29.91 in 5.0 mi North 32.2 mph 44.9 mph N/A   Overcast
7:53 AM 19.4 °F 0.8 °F 15.8 °F 86% 29.93 in 7.0 mi North 28.8 mph 42.6 mph N/A   Overcast
8:13 AM 17.6 °F -1.6 °F 12.2 °F 79% 29.95 in 7.0 mi North 28.8 mph 38.0 mph N/A   Overcast
8:33 AM 15.8 °F -5.0 °F 10.4 °F 79% 29.96 in 10.0 mi North 32.2 mph 41.4 mph N/A   Overcast
8:53 AM 15.8 °F -4.7 °F 10.4 °F 79% 29.97 in 10.0 mi North 31.1 mph 41.4 mph N/A   Overcast
9:13 AM 15.8 °F -4.1 °F 10.4 °F 79% 29.99 in 5.0 mi North 28.8 mph 40.3 mph N/A Snow Light Snow
9:33 AM 12.2 °F -9.6 °F 8.6 °F 85% 30.01 in 0.8 mi NNW 31.1 mph 40.3 mph N/A Snow Light Snow
9:53 AM 12.2 °F -9.6 °F 8.6 °F 85% 30.02 in 0.5 mi NNW 31.1 mph 41.4 mph N/A Snow Light Snow
10:13 AM 12.2 °F -9.9 °F 8.6 °F 85% 30.04 in 1.0 mi NNW 32.2 mph 38.0 mph N/A Snow Light Snow
10:33 AM 12.2 °F -10.2 °F 6.8 °F 79% 30.04 in 1.2 mi NNW 33.4 mph 40.3 mph N/A   Haze
10:53 AM 12.2 °F -11.3 °F 6.8 °F 79% 30.05 in 1.5 mi NNW 38.0 mph 44.9 mph N/A   Haze
11:13 AM 10.4 °F -11.7 °F 6.8 °F 85% 30.07 in 1.2 mi NNW 29.9 mph 44.9 mph N/A   Overcast
11:33 AM 10.4 °F -13.2 °F 6.8 °F 85% 30.07 in 2.0 mi NNW 35.7 mph 42.6 mph N/A   Haze
11:53 AM 10.4 °F -12.3 °F 5.0 °F 79% 30.10 in 3.0 mi NNW 32.2 mph 43.7 mph N/A   Haze
12:13 PM 10.4 °F -13.5 °F 3.2 °F 73% 30.11 in 2.5 mi NNW 36.8 mph 46.0 mph N/A   Haze
12:33 PM 10.4 °F -11.0 °F 5.0 °F 79% 30.12 in 3.0 mi NNW 27.6 mph 42.6 mph N/A   Haze
12:53 PM 10.4 °F -13.5 °F 3.2 °F 73% 30.12 in 3.0 mi NNW 36.8 mph 42.6 mph N/A   Haze
1:13 PM 10.4 °F -11.7 °F 3.2 °F 73% 30.14 in 4.0 mi NNW 29.9 mph 41.4 mph N/A   Haze
1:33 PM 10.4 °F -12.0 °F 5.0 °F 79% 30.15 in 5.0 mi NNW 31.1 mph 41.4 mph N/A   Haze
1:53 PM 10.4 °F -11.4 °F 3.2 °F 73% 30.16 in 5.0 mi NNW 28.8 mph 40.3 mph N/A   Haze
2:13 PM 10.4 °F -12.0 °F 3.2 °F 73% 30.17 in 5.0 mi NNW 31.1 mph 40.3 mph N/A   Haze
2:33 PM 10.4 °F -11.7 °F 3.2 °F 73% 30.18 in 4.0 mi NNW 29.9 mph 39.1 mph N/A   Haze
2:53 PM 10.4 °F -12.7 °F 3.2 °F 73% 30.18 in 7.0 mi NNW 33.4 mph 38.0 mph N/A   Overcast
3:13 PM 10.4 °F -10.7 °F 1.4 °F 67% 30.20 in 7.0 mi NNW 26.5 mph 35.7 mph N/A   Overcast
3:33 PM 8.6 °F -13.4 °F 3.2 °F 79% 30.21 in 1.8 mi NNW 27.6 mph 35.7 mph N/A   Haze
3:53 PM 8.6 °F -13.4 °F 3.2 °F 79% 30.21 in 4.0 mi NNW 27.6 mph 35.7 mph N/A   Haze
4:13 PM 8.6 °F -13.8 °F 1.4 °F 73% 30.22 in 2.5 mi NNW 28.8 mph 35.7 mph N/A   Haze
4:33 PM 8.6 °F -13.4 °F 1.4 °F 73% 30.24 in 3.0 mi NNW 27.6 mph 31.1 mph N/A   Haze
4:53 PM 8.6 °F -12.3 °F 1.4 °F 73% 30.25 in 7.0 mi NNW 24.2 mph 33.4 mph N/A   Mostly Cloudy
5:13 PM 8.6 °F -12.3 °F 1.4 °F 73% 30.25 in 10.0 mi NNW 24.2 mph 33.4 mph N/A   Mostly Cloudy
5:33 PM 8.6 °F -13.4 °F 1.4 °F 73% 30.27 in 10.0 mi NNW 27.6 mph 33.4 mph N/A   Mostly Cloudy
5:53 PM 8.6 °F -12.3 °F 1.4 °F 73% 30.27 in 10.0 mi NNW 24.2 mph 33.4 mph N/A   Scattered Clouds
6:13 PM 6.8 °F -14.7 °F -0.4 °F 72% 30.28 in 10.0 mi NNW 24.2 mph 32.2 mph N/A   Scattered Clouds
6:33 PM 6.8 °F -13.4 °F -0.4 °F 72% 30.30 in 10.0 mi NNW 20.7 mph 29.9 mph N/A   Scattered Clouds
6:53 PM 6.8 °F -14.7 °F -2.2 °F 67% 30.30 in 10.0 mi NNW 24.2 mph 29.9 mph N/A   Clear
7:13 PM 6.8 °F -12.4 °F -2.2 °F 67% 30.31 in 10.0 mi NNW 18.4 mph 24.2 mph N/A   Clear
7:33 PM 6.8 °F -12.4 °F -2.2 °F 67% 30.32 in 10.0 mi NNW 18.4 mph 25.3 mph N/A   Clear
7:53 PM 5.0 °F -13.6 °F -2.2 °F 72% 30.33 in 10.0 mi NNW 16.1 mph - N/A   Clear
8:13 PM 5.0 °F -14.7 °F -2.2 °F 72% 30.34 in 10.0 mi NNW 18.4 mph 23.0 mph N/A   Clear
8:33 PM 5.0 °F -12.3 °F -4.0 °F 66% 30.35 in 10.0 mi NNW 13.8 mph - N/A   Clear
8:53 PM 5.0 °F -13.0 °F -4.0 °F 66% 30.36 in 10.0 mi NNW 15.0 mph 21.9 mph N/A   Clear
9:13 PM 3.2 °F -13.9 °F -4.0 °F 72% 30.37 in 10.0 mi NNW 12.7 mph - N/A   Clear
9:33 PM 3.2 °F -15.9 °F -4.0 °F 72% 30.37 in 10.0 mi NNW 16.1 mph - N/A   Clear
9:53 PM 3.2 °F -13.9 °F -4.0 °F 72% 30.38 in 10.0 mi NNW 12.7 mph - N/A   Clear
10:13 PM 3.2 °F -11.3 °F -4.0 °F 72% 30.38 in 10.0 mi NNW 9.2 mph - N/A   Clear
10:33 PM 3.2 °F -12.2 °F -4.0 °F 72% 30.38 in 10.0 mi NNW 10.4 mph - N/A   Clear
10:53 PM 3.2 °F -13.1 °F -5.8 °F 66% 30.39 in 10.0 mi NNW 11.5 mph - N/A   Clear
11:13 PM 3.2 °F -13.1 °F -5.8 °F 66% 30.39 in 10.0 mi NNW 11.5 mph - N/A   Clear
11:33 PM 1.4 °F -13.5 °F -5.8 °F 72% 30.40 in 10.0 mi NNW 9.2 mph - N/A   Clear
11:53 PM 1.4 °F -13.5 °F -5.8 °F 72% 30.40 in 10.0 mi NNW 9.2 mph - N/A   Clear